Regional Weather Roundup
Issued by NWS Albany, NY

Home | Current Version | Previous Version | Text Only | Print | Product List | Glossary On
Versions: 1 2 3 4 5 6 7 8 9 10 11 12 13 14 15 16 17 18 19 20 21 22 23 24 25 26 27
000
ASUS41 KALY 250910
RWRALY

NEW YORK STATE HOURLY WEATHER ROUNDUP
NATIONAL WEATHER SERVICE ALBANY NY
500 AM EDT SAT MAR 25 2017

NOTE: "FAIR" INDICATES FEW OR NO CLOUDS BELOW 12,000 FEET WITH NO
SIGNIFICANT WEATHER AND/OR NO OBSTRUCTIONS TO VISIBILITY.

NYZ032-033-038>043-046>054-057>066-NYZ062>081-082-084-251000-
EAST


CITY           SKY/WX    TMP DP  RH WIND       PRES   REMARKS
ALBANY         LGT RAIN  38  34  85 N6        30.12R FOG     WCI  33
GLENS FALLS    CLOUDY    35  33  92 CALM      30.14R FOG
POUGHKEEPSIE   CLOUDY    36  32  85 CALM      30.08R
NEWBURGH       MOCLDY    43  36  75 VRB5      30.07R
MONTGOMERY     CLOUDY    35  32  88 CALM      30.06R
WHITE PLAINS   CLOUDY    42  33  70 N3        30.05R
ISLIP          CLOUDY    43  40  89 SW5       30.07S
NEW YORK CITY  CLOUDY    54  36  50 SW8       30.06F
CENTRAL PARK   CLOUDY    53  36  52 W9G20     30.08F
$$

NYZ005>009-017-018-044>046-055-056-251000-
CENTRAL


CITY           SKY/WX    TMP DP  RH WIND       PRES   REMARKS
FULTON         CLOUDY    35  33  92 N7        30.15R WCI  29
SYRACUSE       DRIZZLE   35  35 100 W7        30.14R WCI  29
ROME           CLOUDY    35  35 100 CALM      30.13R
ELMIRA         LGT RAIN  42  38  85 E5        30.10R
BINGHAMTON     FOG       37  37 100 CALM      30.08R VSB 1/4
MONTICELLO     CLOUDY    39  39 100 W5        30.08R
$$

NYZ026>034-041>043-087-251000-
NORTH


CITY           SKY/WX    TMP DP  RH WIND       PRES   REMARKS
WATERTOWN      CLOUDY    33  33 100 N7        30.19R WCI  27
FORT DRUM      NOT AVBL
MASSENA        CLOUDY    31  31 100 CALM      30.21R FOG
SARANAC LAKE   CLOUDY    31  30  96 N5        30.08R WCI  26
PLATTSBURGH    CLOUDY    32  31  96 CALM      30.18R FOG
$$

NYZ001>004-010>016-019>021-085-251000-
WEST


CITY           SKY/WX    TMP DP  RH WIND       PRES   REMARKS
NIAGARA FALLS  CLOUDY    39  35  86 NE10      30.14R WCI  32
BUFFALO        LGT RAIN  39  37  92 NE9       30.11F FOG     WCI  33
DUNKIRK        CLOUDY    39  38  96 NE6       30.10R FOG     WCI  35
JAMESTOWN      CLOUDY    48  43  81 SW3       30.07S
WELLSVILLE     CLOUDY    44  40  85 SE3       30.08F FOG
ROCHESTER      LGT RAIN  37  35  92 E7        30.16S WCI  32
PENN YAN       RAIN      38  35  89 VRB5      30.12R FOG     WCI  34
$$

             KEY
       WCI = WIND CHILL INDEX
       VSB = VISIBILITY
       HX  = HEAT INDEX
$$




USA.gov is the U.S. government's official web portal to all federal, state and local government web resources and services.